Location: Unspecified
(49.2170°N, 0.0000°E)
Time: 12:27:21
(UTC+00:00)

Vanguard 1 - Pass Details

Date: 27 June 2021
Orbit: 651 x 3832 km, 34.2° (Epoch: 23 July)

Event Time Altitude Azimuth Distance (km) Brightness Sun altitude
Rises 00:11:24 0° 274° (W) 7,962 14.7 -17.4°
Reaches altitude 10° 00:17:42 10° 267° (W) 6,797 14.3 -17.4°
Maximum altitude 00:35:38 36° 212° (SSW) 3,982 12.6 -17.1°
Drops below altitude 10° 00:47:32 10° 152° (SSE) 4,538 13.0 -16.8°
Sets 00:50:47 0° 143° (SE) 5,153 13.4 -16.7°
